Location: Le Petit-Vavre
(46.5081°N, 1.5239°E)
Time: 15:32:57
(UTC+00:00)

Meteor 2-12 Rocket - Pass Details

Date: 03 March 2021
Orbit: 936 x 957 km, 82.5° (Epoch: 14 April)

Event Time Altitude Azimuth Distance (km) Brightness Sun altitude
Rises 18:49:11 0° 183° (S) 3,584 7.5 -12.2°
Reaches altitude 10° 18:51:39 10° 182° (S) 2,646 6.8 -12.6°
Maximum altitude 18:57:41 79° 97° (E) 965 4.4 -13.7°
Drops below altitude 10° 19:03:48 10° 11° (NNE) 2,677 6.7 -14.7°
Sets 19:06:19 0° 11° (N) 3,629 7.5 -15.1°
